Index of /20260411/WXO-DD/model_rdps/10km/00/058
Name Last modified Size Description
Parent Directory -
20260411T00Z_MSC_RDPS_AbsoluteVorticity_IsbL-0250_RLatLon0.09_PT058H.grib2 2026-04-11 03:04 602K
20260411T00Z_MSC_RDPS_AbsoluteVorticity_IsbL-0500_RLatLon0.09_PT058H.grib2 2026-04-11 03:04 564K
20260411T00Z_MSC_RDPS_AbsoluteVorticity_IsbL-0700_RLatLon0.09_PT058H.grib2 2026-04-11 03:04 628K
20260411T00Z_MSC_RDPS_AbsoluteVorticity_IsbL-0850_RLatLon0.09_PT058H.grib2 2026-04-11 03:04 788K
20260411T00Z_MSC_RDPS_AirTemp_AGL-120m_RLatLon0.09_PT058H.grib2 2026-04-11 03:04 379K
20260411T00Z_MSC_RDPS_AirTemp_AGL-2m_RLatLon0.09_PT058H.grib2 2026-04-11 03:04 646K
20260411T00Z_MSC_RDPS_AirTemp_AGL-40m_RLatLon0.09_PT058H.grib2 2026-04-11 03:04 413K
20260411T00Z_MSC_RDPS_AirTemp_AGL-80m_RLatLon0.09_PT058H.grib2 2026-04-11 03:04 387K
20260411T00Z_MSC_RDPS_AirTemp_IsbL-0001_RLatLon0.09_PT058H.grib2 2026-04-11 03:04 231K
20260411T00Z_MSC_RDPS_AirTemp_IsbL-0005_RLatLon0.09_PT058H.grib2 2026-04-11 03:04 260K
20260411T00Z_MSC_RDPS_AirTemp_IsbL-0010_RLatLon0.09_PT058H.grib2 2026-04-11 03:04 351K
20260411T00Z_MSC_RDPS_AirTemp_IsbL-0020_RLatLon0.09_PT058H.grib2 2026-04-11 03:04 371K
20260411T00Z_MSC_RDPS_AirTemp_IsbL-0030_RLatLon0.09_PT058H.grib2 2026-04-11 03:04 301K
20260411T00Z_MSC_RDPS_AirTemp_IsbL-0050_RLatLon0.09_PT058H.grib2 2026-04-11 03:04 334K
20260411T00Z_MSC_RDPS_AirTemp_IsbL-0100_RLatLon0.09_PT058H.grib2 2026-04-11 03:04 403K
20260411T00Z_MSC_RDPS_AirTemp_IsbL-0150_RLatLon0.09_PT058H.grib2 2026-04-11 03:04 419K
20260411T00Z_MSC_RDPS_AirTemp_IsbL-0175_RLatLon0.09_PT058H.grib2 2026-04-11 03:04 413K
20260411T00Z_MSC_RDPS_AirTemp_IsbL-0200_RLatLon0.09_PT058H.grib2 2026-04-11 03:04 411K
20260411T00Z_MSC_RDPS_AirTemp_IsbL-0225_RLatLon0.09_PT058H.grib2 2026-04-11 03:04 413K
20260411T00Z_MSC_RDPS_AirTemp_IsbL-0250_RLatLon0.09_PT058H.grib2 2026-04-11 03:04 418K
20260411T00Z_MSC_RDPS_AirTemp_IsbL-0275_RLatLon0.09_PT058H.grib2 2026-04-11 03:04 401K
20260411T00Z_MSC_RDPS_AirTemp_IsbL-0300_RLatLon0.09_PT058H.grib2 2026-04-11 03:04 406K
20260411T00Z_MSC_RDPS_AirTemp_IsbL-0350_RLatLon0.09_PT058H.grib2 2026-04-11 03:04 422K
20260411T00Z_MSC_RDPS_AirTemp_IsbL-0400_RLatLon0.09_PT058H.grib2 2026-04-11 03:04 424K
20260411T00Z_MSC_RDPS_AirTemp_IsbL-0450_RLatLon0.09_PT058H.grib2 2026-04-11 03:04 397K
20260411T00Z_MSC_RDPS_AirTemp_IsbL-0500_RLatLon0.09_PT058H.grib2 2026-04-11 03:04 408K
20260411T00Z_MSC_RDPS_AirTemp_IsbL-0550_RLatLon0.09_PT058H.grib2 2026-04-11 03:04 428K
20260411T00Z_MSC_RDPS_AirTemp_IsbL-0600_RLatLon0.09_PT058H.grib2 2026-04-11 03:04 345K
20260411T00Z_MSC_RDPS_AirTemp_IsbL-0650_RLatLon0.09_PT058H.grib2 2026-04-11 03:04 358K
20260411T00Z_MSC_RDPS_AirTemp_IsbL-0700_RLatLon0.09_PT058H.grib2 2026-04-11 03:04 381K
20260411T00Z_MSC_RDPS_AirTemp_IsbL-0750_RLatLon0.09_PT058H.grib2 2026-04-11 03:04 415K
20260411T00Z_MSC_RDPS_AirTemp_IsbL-0800_RLatLon0.09_PT058H.grib2 2026-04-11 03:04 464K
20260411T00Z_MSC_RDPS_AirTemp_IsbL-0850_RLatLon0.09_PT058H.grib2 2026-04-11 03:04 513K
20260411T00Z_MSC_RDPS_AirTemp_IsbL-0875_RLatLon0.09_PT058H.grib2 2026-04-11 03:04 525K
20260411T00Z_MSC_RDPS_AirTemp_IsbL-0900_RLatLon0.09_PT058H.grib2 2026-04-11 03:04 525K
20260411T00Z_MSC_RDPS_AirTemp_IsbL-0925_RLatLon0.09_PT058H.grib2 2026-04-11 03:04 519K
20260411T00Z_MSC_RDPS_AirTemp_IsbL-0950_RLatLon0.09_PT058H.grib2 2026-04-11 03:04 519K
20260411T00Z_MSC_RDPS_AirTemp_IsbL-0970_RLatLon0.09_PT058H.grib2 2026-04-11 03:04 515K
20260411T00Z_MSC_RDPS_AirTemp_IsbL-0985_RLatLon0.09_PT058H.grib2 2026-04-11 03:04 518K
20260411T00Z_MSC_RDPS_AirTemp_IsbL-1000_RLatLon0.09_PT058H.grib2 2026-04-11 03:04 505K
20260411T00Z_MSC_RDPS_AirTemp_IsbL-1015_RLatLon0.09_PT058H.grib2 2026-04-11 03:04 506K
20260411T00Z_MSC_RDPS_Albedo_Sfc_RLatLon0.09_PT058H.grib2 2026-04-11 03:04 168K
20260411T00Z_MSC_RDPS_CAPE_Sfc_RLatLon0.09_PT058H.grib2 2026-04-11 03:04 1.6M
20260411T00Z_MSC_RDPS_CIN_Sfc_RLatLon0.09_PT058H.grib2 2026-04-11 03:04 1.1M
20260411T00Z_MSC_RDPS_CloudWater_EAtm_RLatLon0.09_PT058H.grib2 2026-04-11 03:04 212K
20260411T00Z_MSC_RDPS_ConvectivePrecip-Accum_Sfc_RLatLon0.09_PT058H.grib2 2026-04-11 03:04 1.2M
20260411T00Z_MSC_RDPS_DewPointDepression_AGL-2m_RLatLon0.09_PT058H.grib2 2026-04-11 03:04 383K
20260411T00Z_MSC_RDPS_DewPointDepression_IsbL-0001_RLatLon0.09_PT058H.grib2 2026-04-11 03:04 193
20260411T00Z_MSC_RDPS_DewPointDepression_IsbL-0005_RLatLon0.09_PT058H.grib2 2026-04-11 03:04 193
20260411T00Z_MSC_RDPS_DewPointDepression_IsbL-0010_RLatLon0.09_PT058H.grib2 2026-04-11 03:04 193
20260411T00Z_MSC_RDPS_DewPointDepression_IsbL-0020_RLatLon0.09_PT058H.grib2 2026-04-11 03:04 193
20260411T00Z_MSC_RDPS_DewPointDepression_IsbL-0030_RLatLon0.09_PT058H.grib2 2026-04-11 03:04 27K
20260411T00Z_MSC_RDPS_DewPointDepression_IsbL-0050_RLatLon0.09_PT058H.grib2 2026-04-11 03:04 108K
20260411T00Z_MSC_RDPS_DewPointDepression_IsbL-0100_RLatLon0.09_PT058H.grib2 2026-04-11 03:04 131K
20260411T00Z_MSC_RDPS_DewPointDepression_IsbL-0150_RLatLon0.09_PT058H.grib2 2026-04-11 03:04 140K
20260411T00Z_MSC_RDPS_DewPointDepression_IsbL-0175_RLatLon0.09_PT058H.grib2 2026-04-11 03:04 170K
20260411T00Z_MSC_RDPS_DewPointDepression_IsbL-0200_RLatLon0.09_PT058H.grib2 2026-04-11 03:04 204K
20260411T00Z_MSC_RDPS_DewPointDepression_IsbL-0225_RLatLon0.09_PT058H.grib2 2026-04-11 03:04 244K
20260411T00Z_MSC_RDPS_DewPointDepression_IsbL-0250_RLatLon0.09_PT058H.grib2 2026-04-11 03:04 276K
20260411T00Z_MSC_RDPS_DewPointDepression_IsbL-0275_RLatLon0.09_PT058H.grib2 2026-04-11 03:04 290K
20260411T00Z_MSC_RDPS_DewPointDepression_IsbL-0300_RLatLon0.09_PT058H.grib2 2026-04-11 03:04 312K
20260411T00Z_MSC_RDPS_DewPointDepression_IsbL-0350_RLatLon0.09_PT058H.grib2 2026-04-11 03:04 322K
20260411T00Z_MSC_RDPS_DewPointDepression_IsbL-0400_RLatLon0.09_PT058H.grib2 2026-04-11 03:04 330K
20260411T00Z_MSC_RDPS_DewPointDepression_IsbL-0450_RLatLon0.09_PT058H.grib2 2026-04-11 03:04 337K
20260411T00Z_MSC_RDPS_DewPointDepression_IsbL-0500_RLatLon0.09_PT058H.grib2 2026-04-11 03:04 346K
20260411T00Z_MSC_RDPS_DewPointDepression_IsbL-0550_RLatLon0.09_PT058H.grib2 2026-04-11 03:04 363K
20260411T00Z_MSC_RDPS_DewPointDepression_IsbL-0600_RLatLon0.09_PT058H.grib2 2026-04-11 03:04 377K
20260411T00Z_MSC_RDPS_DewPointDepression_IsbL-0650_RLatLon0.09_PT058H.grib2 2026-04-11 03:04 385K
20260411T00Z_MSC_RDPS_DewPointDepression_IsbL-0700_RLatLon0.09_PT058H.grib2 2026-04-11 03:04 399K
20260411T00Z_MSC_RDPS_DewPointDepression_IsbL-0750_RLatLon0.09_PT058H.grib2 2026-04-11 03:04 418K
20260411T00Z_MSC_RDPS_DewPointDepression_IsbL-0800_RLatLon0.09_PT058H.grib2 2026-04-11 03:04 443K
20260411T00Z_MSC_RDPS_DewPointDepression_IsbL-0850_RLatLon0.09_PT058H.grib2 2026-04-11 03:04 471K
20260411T00Z_MSC_RDPS_DewPointDepression_IsbL-0875_RLatLon0.09_PT058H.grib2 2026-04-11 03:04 466K
20260411T00Z_MSC_RDPS_DewPointDepression_IsbL-0900_RLatLon0.09_PT058H.grib2 2026-04-11 03:04 449K
20260411T00Z_MSC_RDPS_DewPointDepression_IsbL-0925_RLatLon0.09_PT058H.grib2 2026-04-11 03:04 435K
20260411T00Z_MSC_RDPS_DewPointDepression_IsbL-0950_RLatLon0.09_PT058H.grib2 2026-04-11 03:04 429K
20260411T00Z_MSC_RDPS_DewPointDepression_IsbL-0970_RLatLon0.09_PT058H.grib2 2026-04-11 03:04 429K
20260411T00Z_MSC_RDPS_DewPointDepression_IsbL-0985_RLatLon0.09_PT058H.grib2 2026-04-11 03:04 427K
20260411T00Z_MSC_RDPS_DewPointDepression_IsbL-1000_RLatLon0.09_PT058H.grib2 2026-04-11 03:04 423K
20260411T00Z_MSC_RDPS_DewPointDepression_IsbL-1015_RLatLon0.09_PT058H.grib2 2026-04-11 03:04 414K
20260411T00Z_MSC_RDPS_DewPoint_AGL-2m_RLatLon0.09_PT058H.grib2 2026-04-11 03:04 311K
20260411T00Z_MSC_RDPS_DownwardLongwaveRadiationFlux-Accum_Sfc_RLatLon0.09_PT058H.grib2 2026-04-11 03:04 391K
20260411T00Z_MSC_RDPS_DownwardShortwaveRadiationFlux-Accum_NTAtm_RLatLon0.09_PT058H.grib2 2026-04-11 03:04 97K
20260411T00Z_MSC_RDPS_DownwardShortwaveRadiationFlux-Accum_Sfc_RLatLon0.09_PT058H.grib2 2026-04-11 03:04 536K
20260411T00Z_MSC_RDPS_FreezingRain-Accum1h_Sfc_RLatLon0.09_PT058H.grib2 2026-04-11 03:04 21K
20260411T00Z_MSC_RDPS_FreezingRain-Accum_Sfc_RLatLon0.09_PT058H.grib2 2026-04-11 03:04 160K
20260411T00Z_MSC_RDPS_GeopotentialHeight_IsbL-0001_RLatLon0.09_PT058H.grib2 2026-04-11 03:04 247K
20260411T00Z_MSC_RDPS_GeopotentialHeight_IsbL-0005_RLatLon0.09_PT058H.grib2 2026-04-11 03:04 274K
20260411T00Z_MSC_RDPS_GeopotentialHeight_IsbL-0010_RLatLon0.09_PT058H.grib2 2026-04-11 03:04 243K
20260411T00Z_MSC_RDPS_GeopotentialHeight_IsbL-0020_RLatLon0.09_PT058H.grib2 2026-04-11 03:04 243K
20260411T00Z_MSC_RDPS_GeopotentialHeight_IsbL-0030_RLatLon0.09_PT058H.grib2 2026-04-11 03:04 245K
20260411T00Z_MSC_RDPS_GeopotentialHeight_IsbL-0050_RLatLon0.09_PT058H.grib2 2026-04-11 03:04 246K
20260411T00Z_MSC_RDPS_GeopotentialHeight_IsbL-0100_RLatLon0.09_PT058H.grib2 2026-04-11 03:04 226K
20260411T00Z_MSC_RDPS_GeopotentialHeight_IsbL-0150_RLatLon0.09_PT058H.grib2 2026-04-11 03:04 267K
20260411T00Z_MSC_RDPS_GeopotentialHeight_IsbL-0175_RLatLon0.09_PT058H.grib2 2026-04-11 03:04 268K
20260411T00Z_MSC_RDPS_GeopotentialHeight_IsbL-0200_RLatLon0.09_PT058H.grib2 2026-04-11 03:04 270K
20260411T00Z_MSC_RDPS_GeopotentialHeight_IsbL-0225_RLatLon0.09_PT058H.grib2 2026-04-11 03:04 270K
20260411T00Z_MSC_RDPS_GeopotentialHeight_IsbL-0250_RLatLon0.09_PT058H.grib2 2026-04-11 03:04 270K
20260411T00Z_MSC_RDPS_GeopotentialHeight_IsbL-0275_RLatLon0.09_PT058H.grib2 2026-04-11 03:04 269K
20260411T00Z_MSC_RDPS_GeopotentialHeight_IsbL-0300_RLatLon0.09_PT058H.grib2 2026-04-11 03:04 268K
20260411T00Z_MSC_RDPS_GeopotentialHeight_IsbL-0350_RLatLon0.09_PT058H.grib2 2026-04-11 03:04 263K
20260411T00Z_MSC_RDPS_GeopotentialHeight_IsbL-0400_RLatLon0.09_PT058H.grib2 2026-04-11 03:04 228K
20260411T00Z_MSC_RDPS_GeopotentialHeight_IsbL-0450_RLatLon0.09_PT058H.grib2 2026-04-11 03:04 224K
20260411T00Z_MSC_RDPS_GeopotentialHeight_IsbL-0500_RLatLon0.09_PT058H.grib2 2026-04-11 03:04 220K
20260411T00Z_MSC_RDPS_GeopotentialHeight_IsbL-0550_RLatLon0.09_PT058H.grib2 2026-04-11 03:04 288K
20260411T00Z_MSC_RDPS_GeopotentialHeight_IsbL-0600_RLatLon0.09_PT058H.grib2 2026-04-11 03:04 285K
20260411T00Z_MSC_RDPS_GeopotentialHeight_IsbL-0650_RLatLon0.09_PT058H.grib2 2026-04-11 03:04 282K
20260411T00Z_MSC_RDPS_GeopotentialHeight_IsbL-0700_RLatLon0.09_PT058H.grib2 2026-04-11 03:04 283K
20260411T00Z_MSC_RDPS_GeopotentialHeight_IsbL-0750_RLatLon0.09_PT058H.grib2 2026-04-11 03:04 261K
20260411T00Z_MSC_RDPS_GeopotentialHeight_IsbL-0800_RLatLon0.09_PT058H.grib2 2026-04-11 03:04 269K
20260411T00Z_MSC_RDPS_GeopotentialHeight_IsbL-0850_RLatLon0.09_PT058H.grib2 2026-04-11 03:04 276K
20260411T00Z_MSC_RDPS_GeopotentialHeight_IsbL-0875_RLatLon0.09_PT058H.grib2 2026-04-11 03:04 280K
20260411T00Z_MSC_RDPS_GeopotentialHeight_IsbL-0900_RLatLon0.09_PT058H.grib2 2026-04-11 03:04 282K
20260411T00Z_MSC_RDPS_GeopotentialHeight_IsbL-0925_RLatLon0.09_PT058H.grib2 2026-04-11 03:04 284K
20260411T00Z_MSC_RDPS_GeopotentialHeight_IsbL-0950_RLatLon0.09_PT058H.grib2 2026-04-11 03:04 288K
20260411T00Z_MSC_RDPS_GeopotentialHeight_IsbL-0970_RLatLon0.09_PT058H.grib2 2026-04-11 03:04 291K
20260411T00Z_MSC_RDPS_GeopotentialHeight_IsbL-0985_RLatLon0.09_PT058H.grib2 2026-04-11 03:04 322K
20260411T00Z_MSC_RDPS_GeopotentialHeight_IsbL-1000_RLatLon0.09_PT058H.grib2 2026-04-11 03:04 330K
20260411T00Z_MSC_RDPS_GeopotentialHeight_IsbL-1015_RLatLon0.09_PT058H.grib2 2026-04-11 03:04 340K
20260411T00Z_MSC_RDPS_Humidex_Sfc_RLatLon0.09_PT058H.grib2 2026-04-11 03:04 2.4M
20260411T00Z_MSC_RDPS_IcePellets-Accum1h_Sfc_RLatLon0.09_PT058H.grib2 2026-04-11 03:04 5.4K
20260411T00Z_MSC_RDPS_IcePellets-Accum_Sfc_RLatLon0.09_PT058H.grib2 2026-04-11 03:04 32K
20260411T00Z_MSC_RDPS_KIndex_Sfc_RLatLon0.09_PT058H.grib2 2026-04-11 03:04 2.4M
20260411T00Z_MSC_RDPS_LatentHeatNetFlux_Sfc_RLatLon0.09_PT058H.grib2 2026-04-11 03:04 314K
20260411T00Z_MSC_RDPS_LiftedIndex-MU-VT_IsbL-0500_RLatLon0.09_PT058H.grib2 2026-04-11 03:04 2.4M
20260411T00Z_MSC_RDPS_NetLongwaveRadiationFlux-Accum_Sfc_RLatLon0.09_PT058H.grib2 2026-04-11 03:04 561K
20260411T00Z_MSC_RDPS_NetShortwaveRadiationFlux-Accum_Sfc_RLatLon0.09_PT058H.grib2 2026-04-11 03:04 546K
20260411T00Z_MSC_RDPS_PlanetaryBoundaryLayerHeight_Sfc_RLatLon0.09_PT058H.grib2 2026-04-11 03:04 1.1M
20260411T00Z_MSC_RDPS_Precip-Accum1h_Sfc_RLatLon0.09_PT058H.grib2 2026-04-11 03:04 1.4M
20260411T00Z_MSC_RDPS_Precip-Accum_Sfc_RLatLon0.09_PT058H.grib2 2026-04-11 03:04 2.1M
20260411T00Z_MSC_RDPS_PrecipRate_Sfc_RLatLon0.09_PT058H.grib2 2026-04-11 03:04 258K
20260411T00Z_MSC_RDPS_PrecipType-Instant_Sfc_RLatLon0.09_PT058H.grib2 2026-04-11 03:04 619K
20260411T00Z_MSC_RDPS_Pressure-Trend3h_Sfc_RLatLon0.09_PT058H.grib2 2026-04-11 03:04 1.2M
20260411T00Z_MSC_RDPS_Pressure_MSL_RLatLon0.09_PT058H.grib2 2026-04-11 03:04 244K
20260411T00Z_MSC_RDPS_Pressure_PVU-1.5_RLatLon0.09_PT058H.grib2 2026-04-11 03:04 2.5M
20260411T00Z_MSC_RDPS_Pressure_PVU-1_RLatLon0.09_PT058H.grib2 2026-04-11 03:04 2.4M
20260411T00Z_MSC_RDPS_Pressure_PVU-2_RLatLon0.09_PT058H.grib2 2026-04-11 03:04 2.4M
20260411T00Z_MSC_RDPS_Pressure_Sfc_RLatLon0.09_PT058H.grib2 2026-04-11 03:04 502K
20260411T00Z_MSC_RDPS_RadiativeTemp_Sfc_RLatLon0.09_PT058H.grib2 2026-04-11 03:04 310K
20260411T00Z_MSC_RDPS_Rain-Accum1h_Sfc_RLatLon0.09_PT058H.grib2 2026-04-11 03:04 771K
20260411T00Z_MSC_RDPS_Rain-Accum_Sfc_RLatLon0.09_PT058H.grib2 2026-04-11 03:04 1.6M
20260411T00Z_MSC_RDPS_RelativeHumidity_AGL-2m_RLatLon0.09_PT058H.grib2 2026-04-11 03:04 1.0M
20260411T00Z_MSC_RDPS_RelativeHumidity_IsbL-0010_RLatLon0.09_PT058H.grib2 2026-04-11 03:04 432K
20260411T00Z_MSC_RDPS_RelativeHumidity_IsbL-0020_RLatLon0.09_PT058H.grib2 2026-04-11 03:04 408K
20260411T00Z_MSC_RDPS_RelativeHumidity_IsbL-0030_RLatLon0.09_PT058H.grib2 2026-04-11 03:04 381K
20260411T00Z_MSC_RDPS_RelativeHumidity_IsbL-0050_RLatLon0.09_PT058H.grib2 2026-04-11 03:04 399K
20260411T00Z_MSC_RDPS_RelativeHumidity_IsbL-0100_RLatLon0.09_PT058H.grib2 2026-04-11 03:04 272K
20260411T00Z_MSC_RDPS_RelativeHumidity_IsbL-0150_RLatLon0.09_PT058H.grib2 2026-04-11 03:04 383K
20260411T00Z_MSC_RDPS_RelativeHumidity_IsbL-0175_RLatLon0.09_PT058H.grib2 2026-04-11 03:04 465K
20260411T00Z_MSC_RDPS_RelativeHumidity_IsbL-0200_RLatLon0.09_PT058H.grib2 2026-04-11 03:04 545K
20260411T00Z_MSC_RDPS_RelativeHumidity_IsbL-0225_RLatLon0.09_PT058H.grib2 2026-04-11 03:04 611K
20260411T00Z_MSC_RDPS_RelativeHumidity_IsbL-0250_RLatLon0.09_PT058H.grib2 2026-04-11 03:04 664K
20260411T00Z_MSC_RDPS_RelativeHumidity_IsbL-0275_RLatLon0.09_PT058H.grib2 2026-04-11 03:04 683K
20260411T00Z_MSC_RDPS_RelativeHumidity_IsbL-0300_RLatLon0.09_PT058H.grib2 2026-04-11 03:04 727K
20260411T00Z_MSC_RDPS_RelativeHumidity_IsbL-0350_RLatLon0.09_PT058H.grib2 2026-04-11 03:04 751K
20260411T00Z_MSC_RDPS_RelativeHumidity_IsbL-0400_RLatLon0.09_PT058H.grib2 2026-04-11 03:04 768K
20260411T00Z_MSC_RDPS_RelativeHumidity_IsbL-0450_RLatLon0.09_PT058H.grib2 2026-04-11 03:04 779K
20260411T00Z_MSC_RDPS_RelativeHumidity_IsbL-0500_RLatLon0.09_PT058H.grib2 2026-04-11 03:04 794K
20260411T00Z_MSC_RDPS_RelativeHumidity_IsbL-0550_RLatLon0.09_PT058H.grib2 2026-04-11 03:04 831K
20260411T00Z_MSC_RDPS_RelativeHumidity_IsbL-0600_RLatLon0.09_PT058H.grib2 2026-04-11 03:04 854K
20260411T00Z_MSC_RDPS_RelativeHumidity_IsbL-0650_RLatLon0.09_PT058H.grib2 2026-04-11 03:04 871K
20260411T00Z_MSC_RDPS_RelativeHumidity_IsbL-0700_RLatLon0.09_PT058H.grib2 2026-04-11 03:04 895K
20260411T00Z_MSC_RDPS_RelativeHumidity_IsbL-0750_RLatLon0.09_PT058H.grib2 2026-04-11 03:04 933K
20260411T00Z_MSC_RDPS_RelativeHumidity_IsbL-0800_RLatLon0.09_PT058H.grib2 2026-04-11 03:04 1.0M
20260411T00Z_MSC_RDPS_RelativeHumidity_IsbL-0850_RLatLon0.09_PT058H.grib2 2026-04-11 03:04 1.0M
20260411T00Z_MSC_RDPS_RelativeHumidity_IsbL-0875_RLatLon0.09_PT058H.grib2 2026-04-11 03:04 1.1M
20260411T00Z_MSC_RDPS_RelativeHumidity_IsbL-0900_RLatLon0.09_PT058H.grib2 2026-04-11 03:04 1.1M
20260411T00Z_MSC_RDPS_RelativeHumidity_IsbL-0925_RLatLon0.09_PT058H.grib2 2026-04-11 03:04 1.0M
20260411T00Z_MSC_RDPS_RelativeHumidity_IsbL-0950_RLatLon0.09_PT058H.grib2 2026-04-11 03:04 1.0M
20260411T00Z_MSC_RDPS_RelativeHumidity_IsbL-0970_RLatLon0.09_PT058H.grib2 2026-04-11 03:04 1.0M
20260411T00Z_MSC_RDPS_RelativeHumidity_IsbL-0985_RLatLon0.09_PT058H.grib2 2026-04-11 03:04 1.0M
20260411T00Z_MSC_RDPS_RelativeHumidity_IsbL-1000_RLatLon0.09_PT058H.grib2 2026-04-11 03:04 1.0M
20260411T00Z_MSC_RDPS_RelativeHumidity_IsbL-1015_RLatLon0.09_PT058H.grib2 2026-04-11 03:04 1.0M
20260411T00Z_MSC_RDPS_Runoff-Accum_Sfc_RLatLon0.09_PT058H.grib2 2026-04-11 03:04 60K
20260411T00Z_MSC_RDPS_SWEATIndex_Sfc_RLatLon0.09_PT058H.grib2 2026-04-11 03:04 2.4M
20260411T00Z_MSC_RDPS_SeeingIndex_EAtm_RLatLon0.09_PT058H.grib2 2026-04-11 03:04 1.0M
20260411T00Z_MSC_RDPS_SensibleHeatNetFlux_Sfc_RLatLon0.09_PT058H.grib2 2026-04-11 03:04 398K
20260411T00Z_MSC_RDPS_ShowalterIndex_IsbL-0500_RLatLon0.09_PT058H.grib2 2026-04-11 03:04 2.6M
20260411T00Z_MSC_RDPS_SkyTransparencyIndex_EAtm_RLatLon0.09_PT058H.grib2 2026-04-11 03:04 704K
20260411T00Z_MSC_RDPS_Snow-Accum1h_Sfc_RLatLon0.09_PT058H.grib2 2026-04-11 03:04 456K
20260411T00Z_MSC_RDPS_Snow-Accum_Sfc_RLatLon0.09_PT058H.grib2 2026-04-11 03:04 854K
20260411T00Z_MSC_RDPS_SnowDensity_Sfc_RLatLon0.09_PT058H.grib2 2026-04-11 03:04 179K
20260411T00Z_MSC_RDPS_SnowDepth_Sfc_RLatLon0.09_PT058H.grib2 2026-04-11 03:04 733K
20260411T00Z_MSC_RDPS_SoilTemp_DBS-0to10cm_RLatLon0.09_PT058H.grib2 2026-04-11 03:04 237K
20260411T00Z_MSC_RDPS_SoilTemp_Sfc_RLatLon0.09_PT058H.grib2 2026-04-11 03:04 275K
20260411T00Z_MSC_RDPS_SoilVolumetricIceContent_Sfc_RLatLon0.09_PT058H.grib2 2026-04-11 03:04 178K
20260411T00Z_MSC_RDPS_SoilVolumetricWaterContent_DBS-0to10cm_RLatLon0.09_PT058H.grib2 2026-04-11 03:04 241K
20260411T00Z_MSC_RDPS_SoilVolumetricWaterContent_DBS-0to1cm_RLatLon0.09_PT058H.grib2 2026-04-11 03:04 340K
20260411T00Z_MSC_RDPS_SpecificHumidity_AGL-120m_RLatLon0.09_PT058H.grib2 2026-04-11 03:04 468K
20260411T00Z_MSC_RDPS_SpecificHumidity_AGL-2m_RLatLon0.09_PT058H.grib2 2026-04-11 03:04 631K
20260411T00Z_MSC_RDPS_SpecificHumidity_AGL-40m_RLatLon0.09_PT058H.grib2 2026-04-11 03:04 474K
20260411T00Z_MSC_RDPS_SpecificHumidity_AGL-80m_RLatLon0.09_PT058H.grib2 2026-04-11 03:04 469K
20260411T00Z_MSC_RDPS_SpecificHumidity_IsbL-0001_RLatLon0.09_PT058H.grib2 2026-04-11 03:04 300K
20260411T00Z_MSC_RDPS_SpecificHumidity_IsbL-0005_RLatLon0.09_PT058H.grib2 2026-04-11 03:04 331K
20260411T00Z_MSC_RDPS_SpecificHumidity_IsbL-0010_RLatLon0.09_PT058H.grib2 2026-04-11 03:04 354K
20260411T00Z_MSC_RDPS_SpecificHumidity_IsbL-0020_RLatLon0.09_PT058H.grib2 2026-04-11 03:04 367K
20260411T00Z_MSC_RDPS_SpecificHumidity_IsbL-0030_RLatLon0.09_PT058H.grib2 2026-04-11 03:04 481K
20260411T00Z_MSC_RDPS_SpecificHumidity_IsbL-0050_RLatLon0.09_PT058H.grib2 2026-04-11 03:04 475K
20260411T00Z_MSC_RDPS_SpecificHumidity_IsbL-0100_RLatLon0.09_PT058H.grib2 2026-04-11 03:04 394K
20260411T00Z_MSC_RDPS_SpecificHumidity_IsbL-0150_RLatLon0.09_PT058H.grib2 2026-04-11 03:04 433K
20260411T00Z_MSC_RDPS_SpecificHumidity_IsbL-0175_RLatLon0.09_PT058H.grib2 2026-04-11 03:04 522K
20260411T00Z_MSC_RDPS_SpecificHumidity_IsbL-0200_RLatLon0.09_PT058H.grib2 2026-04-11 03:04 436K
20260411T00Z_MSC_RDPS_SpecificHumidity_IsbL-0225_RLatLon0.09_PT058H.grib2 2026-04-11 03:04 438K
20260411T00Z_MSC_RDPS_SpecificHumidity_IsbL-0250_RLatLon0.09_PT058H.grib2 2026-04-11 03:04 533K
20260411T00Z_MSC_RDPS_SpecificHumidity_IsbL-0275_RLatLon0.09_PT058H.grib2 2026-04-11 03:04 448K
20260411T00Z_MSC_RDPS_SpecificHumidity_IsbL-0300_RLatLon0.09_PT058H.grib2 2026-04-11 03:04 518K
20260411T00Z_MSC_RDPS_SpecificHumidity_IsbL-0350_RLatLon0.09_PT058H.grib2 2026-04-11 03:04 512K
20260411T00Z_MSC_RDPS_SpecificHumidity_IsbL-0400_RLatLon0.09_PT058H.grib2 2026-04-11 03:04 494K
20260411T00Z_MSC_RDPS_SpecificHumidity_IsbL-0450_RLatLon0.09_PT058H.grib2 2026-04-11 03:04 589K
20260411T00Z_MSC_RDPS_SpecificHumidity_IsbL-0500_RLatLon0.09_PT058H.grib2 2026-04-11 03:04 493K
20260411T00Z_MSC_RDPS_SpecificHumidity_IsbL-0550_RLatLon0.09_PT058H.grib2 2026-04-11 03:04 554K
20260411T00Z_MSC_RDPS_SpecificHumidity_IsbL-0600_RLatLon0.09_PT058H.grib2 2026-04-11 03:04 626K
20260411T00Z_MSC_RDPS_SpecificHumidity_IsbL-0650_RLatLon0.09_PT058H.grib2 2026-04-11 03:04 546K
20260411T00Z_MSC_RDPS_SpecificHumidity_IsbL-0700_RLatLon0.09_PT058H.grib2 2026-04-11 03:04 588K
20260411T00Z_MSC_RDPS_SpecificHumidity_IsbL-0750_RLatLon0.09_PT058H.grib2 2026-04-11 03:04 638K
20260411T00Z_MSC_RDPS_SpecificHumidity_IsbL-0800_RLatLon0.09_PT058H.grib2 2026-04-11 03:04 714K
20260411T00Z_MSC_RDPS_SpecificHumidity_IsbL-0850_RLatLon0.09_PT058H.grib2 2026-04-11 03:04 781K
20260411T00Z_MSC_RDPS_SpecificHumidity_IsbL-0875_RLatLon0.09_PT058H.grib2 2026-04-11 03:04 797K
20260411T00Z_MSC_RDPS_SpecificHumidity_IsbL-0900_RLatLon0.09_PT058H.grib2 2026-04-11 03:04 802K
20260411T00Z_MSC_RDPS_SpecificHumidity_IsbL-0925_RLatLon0.09_PT058H.grib2 2026-04-11 03:04 803K
20260411T00Z_MSC_RDPS_SpecificHumidity_IsbL-0950_RLatLon0.09_PT058H.grib2 2026-04-11 03:04 804K
20260411T00Z_MSC_RDPS_SpecificHumidity_IsbL-0970_RLatLon0.09_PT058H.grib2 2026-04-11 03:04 664K
20260411T00Z_MSC_RDPS_SpecificHumidity_IsbL-0985_RLatLon0.09_PT058H.grib2 2026-04-11 03:04 661K
20260411T00Z_MSC_RDPS_SpecificHumidity_IsbL-1000_RLatLon0.09_PT058H.grib2 2026-04-11 03:04 651K
20260411T00Z_MSC_RDPS_SpecificHumidity_IsbL-1015_RLatLon0.09_PT058H.grib2 2026-04-11 03:04 639K
20260411T00Z_MSC_RDPS_SpecificHumidity_Sfc_RLatLon0.09_PT058H.grib2 2026-04-11 03:04 279K
20260411T00Z_MSC_RDPS_StormRelativeHelicity_EtaL-10000_RLatLon0.09_PT058H.grib2 2026-04-11 03:04 1.1M
20260411T00Z_MSC_RDPS_StormSeverityIndex_EtaL-10000_RLatLon0.09_PT058H.grib2 2026-04-11 03:04 1.2M
20260411T00Z_MSC_RDPS_Thickness_IsbL-0850to0700_RLatLon0.09_PT058H.grib2 2026-04-11 03:04 196K
20260411T00Z_MSC_RDPS_Thickness_IsbL-1000to0500_RLatLon0.09_PT058H.grib2 2026-04-11 03:04 137K
20260411T00Z_MSC_RDPS_Thickness_IsbL-1000to0850_RLatLon0.09_PT058H.grib2 2026-04-11 03:04 187K
20260411T00Z_MSC_RDPS_TotalCloudCover_Sfc_RLatLon0.09_PT058H.grib2 2026-04-11 03:04 664K
20260411T00Z_MSC_RDPS_TotalTotalsIndex_Sfc_RLatLon0.09_PT058H.grib2 2026-04-11 03:04 2.4M
20260411T00Z_MSC_RDPS_UVIndex-ClearSky_Sfc_RLatLon0.09_PT058H.grib2 2026-04-11 03:04 106K
20260411T00Z_MSC_RDPS_UVIndex_Sfc_RLatLon0.09_PT058H.grib2 2026-04-11 03:04 207K
20260411T00Z_MSC_RDPS_UpwardLongwaveRadiationFlux_NTAtm_RLatLon0.09_PT058H.grib2 2026-04-11 03:04 484K
20260411T00Z_MSC_RDPS_UpwardShortwaveRadiationFlux_NTAtm_RLatLon0.09_PT058H.grib2 2026-04-11 03:04 170K
20260411T00Z_MSC_RDPS_VerticalVelocity_IsbL-0250_RLatLon0.09_PT058H.grib2 2026-04-11 03:04 728K
20260411T00Z_MSC_RDPS_VerticalVelocity_IsbL-0500_RLatLon0.09_PT058H.grib2 2026-04-11 03:04 572K
20260411T00Z_MSC_RDPS_VerticalVelocity_IsbL-0700_RLatLon0.09_PT058H.grib2 2026-04-11 03:04 626K
20260411T00Z_MSC_RDPS_VerticalVelocity_IsbL-0850_RLatLon0.09_PT058H.grib2 2026-04-11 03:04 708K
20260411T00Z_MSC_RDPS_VerticalWindShear_EtaL-6500_RLatLon0.09_PT058H.grib2 2026-04-11 03:04 1.2M
20260411T00Z_MSC_RDPS_WindChill_Sfc_RLatLon0.09_PT058H.grib2 2026-04-11 03:04 1.1M
20260411T00Z_MSC_RDPS_WindDir_AGL-10m_RLatLon0.09_PT058H.grib2 2026-04-11 03:04 951K
20260411T00Z_MSC_RDPS_WindDir_AGL-120m_RLatLon0.09_PT058H.grib2 2026-04-11 03:04 575K
20260411T00Z_MSC_RDPS_WindDir_AGL-40m_RLatLon0.09_PT058H.grib2 2026-04-11 03:04 611K
20260411T00Z_MSC_RDPS_WindDir_AGL-80m_RLatLon0.09_PT058H.grib2 2026-04-11 03:04 588K
20260411T00Z_MSC_RDPS_WindDir_IsbL-0001_RLatLon0.09_PT058H.grib2 2026-04-11 03:04 251K
20260411T00Z_MSC_RDPS_WindDir_IsbL-0005_RLatLon0.09_PT058H.grib2 2026-04-11 03:04 329K
20260411T00Z_MSC_RDPS_WindDir_IsbL-0010_RLatLon0.09_PT058H.grib2 2026-04-11 03:04 341K
20260411T00Z_MSC_RDPS_WindDir_IsbL-0020_RLatLon0.09_PT058H.grib2 2026-04-11 03:04 372K
20260411T00Z_MSC_RDPS_WindDir_IsbL-0030_RLatLon0.09_PT058H.grib2 2026-04-11 03:04 377K
20260411T00Z_MSC_RDPS_WindDir_IsbL-0050_RLatLon0.09_PT058H.grib2 2026-04-11 03:04 401K
20260411T00Z_MSC_RDPS_WindDir_IsbL-0100_RLatLon0.09_PT058H.grib2 2026-04-11 03:04 385K
20260411T00Z_MSC_RDPS_WindDir_IsbL-0150_RLatLon0.09_PT058H.grib2 2026-04-11 03:04 377K
20260411T00Z_MSC_RDPS_WindDir_IsbL-0175_RLatLon0.09_PT058H.grib2 2026-04-11 03:04 396K
20260411T00Z_MSC_RDPS_WindDir_IsbL-0200_RLatLon0.09_PT058H.grib2 2026-04-11 03:04 410K
20260411T00Z_MSC_RDPS_WindDir_IsbL-0225_RLatLon0.09_PT058H.grib2 2026-04-11 03:04 412K
20260411T00Z_MSC_RDPS_WindDir_IsbL-0250_RLatLon0.09_PT058H.grib2 2026-04-11 03:04 414K
20260411T00Z_MSC_RDPS_WindDir_IsbL-0275_RLatLon0.09_PT058H.grib2 2026-04-11 03:04 434K
20260411T00Z_MSC_RDPS_WindDir_IsbL-0300_RLatLon0.09_PT058H.grib2 2026-04-11 03:04 434K
20260411T00Z_MSC_RDPS_WindDir_IsbL-0350_RLatLon0.09_PT058H.grib2 2026-04-11 03:04 473K
20260411T00Z_MSC_RDPS_WindDir_IsbL-0400_RLatLon0.09_PT058H.grib2 2026-04-11 03:04 498K
20260411T00Z_MSC_RDPS_WindDir_IsbL-0450_RLatLon0.09_PT058H.grib2 2026-04-11 03:04 520K
20260411T00Z_MSC_RDPS_WindDir_IsbL-0500_RLatLon0.09_PT058H.grib2 2026-04-11 03:04 535K
20260411T00Z_MSC_RDPS_WindDir_IsbL-0550_RLatLon0.09_PT058H.grib2 2026-04-11 03:04 561K
20260411T00Z_MSC_RDPS_WindDir_IsbL-0600_RLatLon0.09_PT058H.grib2 2026-04-11 03:04 592K
20260411T00Z_MSC_RDPS_WindDir_IsbL-0650_RLatLon0.09_PT058H.grib2 2026-04-11 03:04 640K
20260411T00Z_MSC_RDPS_WindDir_IsbL-0700_RLatLon0.09_PT058H.grib2 2026-04-11 03:04 670K
20260411T00Z_MSC_RDPS_WindDir_IsbL-0750_RLatLon0.09_PT058H.grib2 2026-04-11 03:04 699K
20260411T00Z_MSC_RDPS_WindDir_IsbL-0800_RLatLon0.09_PT058H.grib2 2026-04-11 03:04 748K
20260411T00Z_MSC_RDPS_WindDir_IsbL-0850_RLatLon0.09_PT058H.grib2 2026-04-11 03:04 817K
20260411T00Z_MSC_RDPS_WindDir_IsbL-0875_RLatLon0.09_PT058H.grib2 2026-04-11 03:04 843K
20260411T00Z_MSC_RDPS_WindDir_IsbL-0900_RLatLon0.09_PT058H.grib2 2026-04-11 03:04 860K
20260411T00Z_MSC_RDPS_WindDir_IsbL-0925_RLatLon0.09_PT058H.grib2 2026-04-11 03:04 871K
20260411T00Z_MSC_RDPS_WindDir_IsbL-0950_RLatLon0.09_PT058H.grib2 2026-04-11 03:04 883K
20260411T00Z_MSC_RDPS_WindDir_IsbL-0970_RLatLon0.09_PT058H.grib2 2026-04-11 03:04 894K
20260411T00Z_MSC_RDPS_WindDir_IsbL-0985_RLatLon0.09_PT058H.grib2 2026-04-11 03:04 904K
20260411T00Z_MSC_RDPS_WindDir_IsbL-1000_RLatLon0.09_PT058H.grib2 2026-04-11 03:04 917K
20260411T00Z_MSC_RDPS_WindDir_IsbL-1015_RLatLon0.09_PT058H.grib2 2026-04-11 03:04 935K
20260411T00Z_MSC_RDPS_WindGust-Max_AGL-10m_RLatLon0.09_PT058H.grib2 2026-04-11 03:04 1.0M
20260411T00Z_MSC_RDPS_WindGust-Min_AGL-10m_RLatLon0.09_PT058H.grib2 2026-04-11 03:04 1.0M
20260411T00Z_MSC_RDPS_WindGust_AGL-10m_RLatLon0.09_PT058H.grib2 2026-04-11 03:04 1.0M
20260411T00Z_MSC_RDPS_WindSpeed_AGL-10m_RLatLon0.09_PT058H.grib2 2026-04-11 03:04 851K
20260411T00Z_MSC_RDPS_WindSpeed_AGL-120m_RLatLon0.09_PT058H.grib2 2026-04-11 03:04 548K
20260411T00Z_MSC_RDPS_WindSpeed_AGL-40m_RLatLon0.09_PT058H.grib2 2026-04-11 03:04 551K
20260411T00Z_MSC_RDPS_WindSpeed_AGL-80m_RLatLon0.09_PT058H.grib2 2026-04-11 03:04 549K
20260411T00Z_MSC_RDPS_WindSpeed_IsbL-0001_RLatLon0.09_PT058H.grib2 2026-04-11 03:04 296K
20260411T00Z_MSC_RDPS_WindSpeed_IsbL-0005_RLatLon0.09_PT058H.grib2 2026-04-11 03:04 343K
20260411T00Z_MSC_RDPS_WindSpeed_IsbL-0010_RLatLon0.09_PT058H.grib2 2026-04-11 03:04 355K
20260411T00Z_MSC_RDPS_WindSpeed_IsbL-0020_RLatLon0.09_PT058H.grib2 2026-04-11 03:04 343K
20260411T00Z_MSC_RDPS_WindSpeed_IsbL-0030_RLatLon0.09_PT058H.grib2 2026-04-11 03:04 345K
20260411T00Z_MSC_RDPS_WindSpeed_IsbL-0050_RLatLon0.09_PT058H.grib2 2026-04-11 03:04 380K
20260411T00Z_MSC_RDPS_WindSpeed_IsbL-0100_RLatLon0.09_PT058H.grib2 2026-04-11 03:04 497K
20260411T00Z_MSC_RDPS_WindSpeed_IsbL-0150_RLatLon0.09_PT058H.grib2 2026-04-11 03:04 377K
20260411T00Z_MSC_RDPS_WindSpeed_IsbL-0175_RLatLon0.09_PT058H.grib2 2026-04-11 03:04 420K
20260411T00Z_MSC_RDPS_WindSpeed_IsbL-0200_RLatLon0.09_PT058H.grib2 2026-04-11 03:04 436K
20260411T00Z_MSC_RDPS_WindSpeed_IsbL-0225_RLatLon0.09_PT058H.grib2 2026-04-11 03:04 442K
20260411T00Z_MSC_RDPS_WindSpeed_IsbL-0250_RLatLon0.09_PT058H.grib2 2026-04-11 03:04 445K
20260411T00Z_MSC_RDPS_WindSpeed_IsbL-0275_RLatLon0.09_PT058H.grib2 2026-04-11 03:04 457K
20260411T00Z_MSC_RDPS_WindSpeed_IsbL-0300_RLatLon0.09_PT058H.grib2 2026-04-11 03:04 453K
20260411T00Z_MSC_RDPS_WindSpeed_IsbL-0350_RLatLon0.09_PT058H.grib2 2026-04-11 03:04 466K
20260411T00Z_MSC_RDPS_WindSpeed_IsbL-0400_RLatLon0.09_PT058H.grib2 2026-04-11 03:04 454K
20260411T00Z_MSC_RDPS_WindSpeed_IsbL-0450_RLatLon0.09_PT058H.grib2 2026-04-11 03:04 457K
20260411T00Z_MSC_RDPS_WindSpeed_IsbL-0500_RLatLon0.09_PT058H.grib2 2026-04-11 03:04 459K
20260411T00Z_MSC_RDPS_WindSpeed_IsbL-0550_RLatLon0.09_PT058H.grib2 2026-04-11 03:04 464K
20260411T00Z_MSC_RDPS_WindSpeed_IsbL-0600_RLatLon0.09_PT058H.grib2 2026-04-11 03:04 594K
20260411T00Z_MSC_RDPS_WindSpeed_IsbL-0650_RLatLon0.09_PT058H.grib2 2026-04-11 03:04 616K
20260411T00Z_MSC_RDPS_WindSpeed_IsbL-0700_RLatLon0.09_PT058H.grib2 2026-04-11 03:04 640K
20260411T00Z_MSC_RDPS_WindSpeed_IsbL-0750_RLatLon0.09_PT058H.grib2 2026-04-11 03:04 715K
20260411T00Z_MSC_RDPS_WindSpeed_IsbL-0800_RLatLon0.09_PT058H.grib2 2026-04-11 03:04 721K
20260411T00Z_MSC_RDPS_WindSpeed_IsbL-0850_RLatLon0.09_PT058H.grib2 2026-04-11 03:04 824K
20260411T00Z_MSC_RDPS_WindSpeed_IsbL-0875_RLatLon0.09_PT058H.grib2 2026-04-11 03:04 844K
20260411T00Z_MSC_RDPS_WindSpeed_IsbL-0900_RLatLon0.09_PT058H.grib2 2026-04-11 03:04 859K
20260411T00Z_MSC_RDPS_WindSpeed_IsbL-0925_RLatLon0.09_PT058H.grib2 2026-04-11 03:04 872K
20260411T00Z_MSC_RDPS_WindSpeed_IsbL-0950_RLatLon0.09_PT058H.grib2 2026-04-11 03:04 877K
20260411T00Z_MSC_RDPS_WindSpeed_IsbL-0970_RLatLon0.09_PT058H.grib2 2026-04-11 03:04 873K
20260411T00Z_MSC_RDPS_WindSpeed_IsbL-0985_RLatLon0.09_PT058H.grib2 2026-04-11 03:04 867K
20260411T00Z_MSC_RDPS_WindSpeed_IsbL-1000_RLatLon0.09_PT058H.grib2 2026-04-11 03:04 859K
20260411T00Z_MSC_RDPS_WindSpeed_IsbL-1015_RLatLon0.09_PT058H.grib2 2026-04-11 03:04 850K
20260411T00Z_MSC_RDPS_WindU_AGL-10m_RLatLon0.09_PT058H.grib2 2026-04-11 03:04 438K
20260411T00Z_MSC_RDPS_WindU_AGL-120m_RLatLon0.09_PT058H.grib2 2026-04-11 03:04 425K
20260411T00Z_MSC_RDPS_WindU_AGL-40m_RLatLon0.09_PT058H.grib2 2026-04-11 03:04 546K
20260411T00Z_MSC_RDPS_WindU_AGL-80m_RLatLon0.09_PT058H.grib2 2026-04-11 03:04 544K
20260411T00Z_MSC_RDPS_WindU_IsbL-0001_RLatLon0.09_PT058H.grib2 2026-04-11 03:04 208K
20260411T00Z_MSC_RDPS_WindU_IsbL-0005_RLatLon0.09_PT058H.grib2 2026-04-11 03:04 240K
20260411T00Z_MSC_RDPS_WindU_IsbL-0010_RLatLon0.09_PT058H.grib2 2026-04-11 03:04 249K
20260411T00Z_MSC_RDPS_WindU_IsbL-0020_RLatLon0.09_PT058H.grib2 2026-04-11 03:04 341K
20260411T00Z_MSC_RDPS_WindU_IsbL-0030_RLatLon0.09_PT058H.grib2 2026-04-11 03:04 342K
20260411T00Z_MSC_RDPS_WindU_IsbL-0050_RLatLon0.09_PT058H.grib2 2026-04-11 03:04 371K
20260411T00Z_MSC_RDPS_WindU_IsbL-0100_RLatLon0.09_PT058H.grib2 2026-04-11 03:04 351K
20260411T00Z_MSC_RDPS_WindU_IsbL-0150_RLatLon0.09_PT058H.grib2 2026-04-11 03:04 394K
20260411T00Z_MSC_RDPS_WindU_IsbL-0175_RLatLon0.09_PT058H.grib2 2026-04-11 03:04 416K
20260411T00Z_MSC_RDPS_WindU_IsbL-0200_RLatLon0.09_PT058H.grib2 2026-04-11 03:04 429K
20260411T00Z_MSC_RDPS_WindU_IsbL-0225_RLatLon0.09_PT058H.grib2 2026-04-11 03:04 434K
20260411T00Z_MSC_RDPS_WindU_IsbL-0250_RLatLon0.09_PT058H.grib2 2026-04-11 03:04 436K
20260411T00Z_MSC_RDPS_WindU_IsbL-0275_RLatLon0.09_PT058H.grib2 2026-04-11 03:04 448K
20260411T00Z_MSC_RDPS_WindU_IsbL-0300_RLatLon0.09_PT058H.grib2 2026-04-11 03:04 444K
20260411T00Z_MSC_RDPS_WindU_IsbL-0350_RLatLon0.09_PT058H.grib2 2026-04-11 03:04 456K
20260411T00Z_MSC_RDPS_WindU_IsbL-0400_RLatLon0.09_PT058H.grib2 2026-04-11 03:04 461K
20260411T00Z_MSC_RDPS_WindU_IsbL-0450_RLatLon0.09_PT058H.grib2 2026-04-11 03:04 464K
20260411T00Z_MSC_RDPS_WindU_IsbL-0500_RLatLon0.09_PT058H.grib2 2026-04-11 03:04 466K
20260411T00Z_MSC_RDPS_WindU_IsbL-0550_RLatLon0.09_PT058H.grib2 2026-04-11 03:04 471K
20260411T00Z_MSC_RDPS_WindU_IsbL-0600_RLatLon0.09_PT058H.grib2 2026-04-11 03:04 483K
20260411T00Z_MSC_RDPS_WindU_IsbL-0650_RLatLon0.09_PT058H.grib2 2026-04-11 03:04 503K
20260411T00Z_MSC_RDPS_WindU_IsbL-0700_RLatLon0.09_PT058H.grib2 2026-04-11 03:04 508K
20260411T00Z_MSC_RDPS_WindU_IsbL-0750_RLatLon0.09_PT058H.grib2 2026-04-11 03:04 537K
20260411T00Z_MSC_RDPS_WindU_IsbL-0800_RLatLon0.09_PT058H.grib2 2026-04-11 03:04 580K
20260411T00Z_MSC_RDPS_WindU_IsbL-0850_RLatLon0.09_PT058H.grib2 2026-04-11 03:04 633K
20260411T00Z_MSC_RDPS_WindU_IsbL-0875_RLatLon0.09_PT058H.grib2 2026-04-11 03:04 650K
20260411T00Z_MSC_RDPS_WindU_IsbL-0900_RLatLon0.09_PT058H.grib2 2026-04-11 03:04 661K
20260411T00Z_MSC_RDPS_WindU_IsbL-0925_RLatLon0.09_PT058H.grib2 2026-04-11 03:04 668K
20260411T00Z_MSC_RDPS_WindU_IsbL-0950_RLatLon0.09_PT058H.grib2 2026-04-11 03:04 670K
20260411T00Z_MSC_RDPS_WindU_IsbL-0970_RLatLon0.09_PT058H.grib2 2026-04-11 03:04 666K
20260411T00Z_MSC_RDPS_WindU_IsbL-0985_RLatLon0.09_PT058H.grib2 2026-04-11 03:04 661K
20260411T00Z_MSC_RDPS_WindU_IsbL-1000_RLatLon0.09_PT058H.grib2 2026-04-11 03:04 795K
20260411T00Z_MSC_RDPS_WindU_IsbL-1015_RLatLon0.09_PT058H.grib2 2026-04-11 03:04 789K
20260411T00Z_MSC_RDPS_WindV_AGL-10m_RLatLon0.09_PT058H.grib2 2026-04-11 03:04 437K
20260411T00Z_MSC_RDPS_WindV_AGL-120m_RLatLon0.09_PT058H.grib2 2026-04-11 03:04 424K
20260411T00Z_MSC_RDPS_WindV_AGL-40m_RLatLon0.09_PT058H.grib2 2026-04-11 03:04 546K
20260411T00Z_MSC_RDPS_WindV_AGL-80m_RLatLon0.09_PT058H.grib2 2026-04-11 03:04 544K
20260411T00Z_MSC_RDPS_WindV_IsbL-0001_RLatLon0.09_PT058H.grib2 2026-04-11 03:04 252K
20260411T00Z_MSC_RDPS_WindV_IsbL-0005_RLatLon0.09_PT058H.grib2 2026-04-11 03:04 240K
20260411T00Z_MSC_RDPS_WindV_IsbL-0010_RLatLon0.09_PT058H.grib2 2026-04-11 03:04 350K
20260411T00Z_MSC_RDPS_WindV_IsbL-0020_RLatLon0.09_PT058H.grib2 2026-04-11 03:04 374K
20260411T00Z_MSC_RDPS_WindV_IsbL-0030_RLatLon0.09_PT058H.grib2 2026-04-11 03:04 374K
20260411T00Z_MSC_RDPS_WindV_IsbL-0050_RLatLon0.09_PT058H.grib2 2026-04-11 03:04 403K
20260411T00Z_MSC_RDPS_WindV_IsbL-0100_RLatLon0.09_PT058H.grib2 2026-04-11 03:04 345K
20260411T00Z_MSC_RDPS_WindV_IsbL-0150_RLatLon0.09_PT058H.grib2 2026-04-11 03:04 390K
20260411T00Z_MSC_RDPS_WindV_IsbL-0175_RLatLon0.09_PT058H.grib2 2026-04-11 03:04 317K
20260411T00Z_MSC_RDPS_WindV_IsbL-0200_RLatLon0.09_PT058H.grib2 2026-04-11 03:04 332K
20260411T00Z_MSC_RDPS_WindV_IsbL-0225_RLatLon0.09_PT058H.grib2 2026-04-11 03:04 336K
20260411T00Z_MSC_RDPS_WindV_IsbL-0250_RLatLon0.09_PT058H.grib2 2026-04-11 03:04 337K
20260411T00Z_MSC_RDPS_WindV_IsbL-0275_RLatLon0.09_PT058H.grib2 2026-04-11 03:04 372K
20260411T00Z_MSC_RDPS_WindV_IsbL-0300_RLatLon0.09_PT058H.grib2 2026-04-11 03:04 369K
20260411T00Z_MSC_RDPS_WindV_IsbL-0350_RLatLon0.09_PT058H.grib2 2026-04-11 03:04 377K
20260411T00Z_MSC_RDPS_WindV_IsbL-0400_RLatLon0.09_PT058H.grib2 2026-04-11 03:04 357K
20260411T00Z_MSC_RDPS_WindV_IsbL-0450_RLatLon0.09_PT058H.grib2 2026-04-11 03:04 359K
20260411T00Z_MSC_RDPS_WindV_IsbL-0500_RLatLon0.09_PT058H.grib2 2026-04-11 03:04 361K
20260411T00Z_MSC_RDPS_WindV_IsbL-0550_RLatLon0.09_PT058H.grib2 2026-04-11 03:04 468K
20260411T00Z_MSC_RDPS_WindV_IsbL-0600_RLatLon0.09_PT058H.grib2 2026-04-11 03:04 479K
20260411T00Z_MSC_RDPS_WindV_IsbL-0650_RLatLon0.09_PT058H.grib2 2026-04-11 03:04 499K
20260411T00Z_MSC_RDPS_WindV_IsbL-0700_RLatLon0.09_PT058H.grib2 2026-04-11 03:04 518K
20260411T00Z_MSC_RDPS_WindV_IsbL-0750_RLatLon0.09_PT058H.grib2 2026-04-11 03:04 545K
20260411T00Z_MSC_RDPS_WindV_IsbL-0800_RLatLon0.09_PT058H.grib2 2026-04-11 03:04 586K
20260411T00Z_MSC_RDPS_WindV_IsbL-0850_RLatLon0.09_PT058H.grib2 2026-04-11 03:04 635K
20260411T00Z_MSC_RDPS_WindV_IsbL-0875_RLatLon0.09_PT058H.grib2 2026-04-11 03:04 652K
20260411T00Z_MSC_RDPS_WindV_IsbL-0900_RLatLon0.09_PT058H.grib2 2026-04-11 03:04 663K
20260411T00Z_MSC_RDPS_WindV_IsbL-0925_RLatLon0.09_PT058H.grib2 2026-04-11 03:04 665K
20260411T00Z_MSC_RDPS_WindV_IsbL-0950_RLatLon0.09_PT058H.grib2 2026-04-11 03:04 668K
20260411T00Z_MSC_RDPS_WindV_IsbL-0970_RLatLon0.09_PT058H.grib2 2026-04-11 03:04 667K
20260411T00Z_MSC_RDPS_WindV_IsbL-0985_RLatLon0.09_PT058H.grib2 2026-04-11 03:04 662K
20260411T00Z_MSC_RDPS_WindV_IsbL-1000_RLatLon0.09_PT058H.grib2 2026-04-11 03:04 795K
20260411T00Z_MSC_RDPS_WindV_IsbL-1015_RLatLon0.09_PT058H.grib2 2026-04-11 03:04 788K